User: anonymous   Login
Location: Unspecified
(0.0000°N, 0.0000°E)
Time: 05:50:49
(UTC+00:00)
Language:

SRMSAT - Orbit

View from above orbital plane
View from above orbital plane
View from above satellite
View from above satellite

Ground track
Ground track

The orbit data is extracted from the following two-line orbital elements,

1 37841U 11058D   19168.87504896  .00000290  00000-0  14056-4 0  9991
2 37841  19.9737  36.4842 0011977 187.7523 286.7511 14.10633597396575
Epoch (UTC): 17 June 2019 21:00:04
Eccentricity: 0.0011977
inclination: 19.9737°
perigee height: 848 km
apogee height: 866 km
right ascension of ascending node: 36.4842°
argument of perigee: 187.7523°
revolutions per day: 14.10633597
mean anomaly at epoch: 286.7511°
orbit number at epoch: 39657

The dashed part of the orbit path shows where the satellite is in the earth's shadow,  

DLR